Change the Weather History Date:

Wednesday, May 7, 2014

  Actual Average Record
Temperature  
Mean Temperature 45 °F 51 °F  
Max Temperature 59 °F 63 °F 86 °F (1964)
Min Temperature 30 °F 39 °F 22 °F (1966)
Degree Days  
Heating Degree Days 20    
Cooling Degree Days 0 0  
Month to date cooling degree days 0 0  
Year to date cooling degree days 0 1  
Moisture  
Dew Point 27 °F    
Average Humidity 53    
Maximum Humidity 82    
Minimum Humidity 23    
Precipitation  
Precipitation 0.00 in 0.11 in 0.43 in (1967)
Month to date precipitation 0.77 0.72  
Year to date precipitation 10.23 10.26  
Sea Level Pressure  
Sea Level Pressure 30.22 in    
Wind  
Wind Speed 5 mph (NW)    
Max Wind Speed 16 mph    
Max Gust Speed 20 mph    
Visibility 10 miles    
Events      
T = Trace of Precipitation, MM = Missing Value Source: NWS Daily Summary

Daily Weather History Graph

Daily Weather History Graph

Search for Another Location

Airport or City:

Trip Planner

Search our weather history database for the weather conditions in past years. The results will help you decide how hot, cold, wet, or windy it might be!

Date:

Astronomy

May. 07, 2014 Rise Set
Actual Time 5:33 AM EDT 8:01 PM EDT
Civil Twilight 5:00 AM EDT 8:33 PM EDT
Nautical Twilight 4:20 AM EDT 9:14 PM EDT
Astronomical Twilight 3:34 AM EDT 10:00 PM EDT
Moon 12:48 PM EDT 1:46 AM EDT
Length of Visible Light 15h 33m
Length of Day
14h 27m
First Quarter, 55% of the Moon is Illuminated
May 7
First Quarter
May 14
Full
May 21
Last Quarter
May 28
New
Jun 5
First Quarter

Hourly Weather History & Observations

Time (EDT) Temp. Windchill Dew Point Humidity Pressure Visibility Wind Dir Wind Speed Gust Speed Precip Events Conditions
12:51 AM 39.2 °F 34.2 °F 26.6 °F 61% 30.11 in 10.0 mi WNW 6.9 mph - N/A   Clear
1:51 AM 41.0 °F 39.0 °F 25.0 °F 53% 30.14 in 10.0 mi WNW 3.5 mph - N/A   Partly Cloudy
2:51 AM 34.0 °F - 28.0 °F 79% 30.16 in 10.0 mi Calm Calm - N/A   Clear
3:51 AM 32.0 °F - 26.1 °F 79% 30.18 in 10.0 mi Calm Calm - N/A   Clear
4:51 AM 34.0 °F - 27.0 °F 75% 30.19 in 10.0 mi Calm Calm - N/A   Clear
5:51 AM 30.0 °F - 25.0 °F 82% 30.22 in 10.0 mi Calm Calm - N/A   Clear
6:51 AM 37.0 °F - 30.0 °F 76% 30.23 in 10.0 mi Calm Calm - N/A   Clear
7:51 AM 39.9 °F 37.8 °F 30.9 °F 70% 30.25 in 10.0 mi ENE 3.5 mph - N/A   Clear
8:51 AM 43.0 °F 39.5 °F 30.9 °F 62% 30.25 in 10.0 mi NW 5.8 mph - N/A   Clear
9:51 AM 46.9 °F - 28.9 °F 50% 30.26 in 10.0 mi NNW 9.2 mph 16.1 mph N/A   Clear
10:51 AM 51.1 °F - 30.0 °F 44% 30.27 in 10.0 mi North 6.9 mph - N/A   Clear
11:51 AM 53.1 °F - 32.0 °F 45% 30.26 in 10.0 mi WNW 9.2 mph - N/A   Clear
12:51 PM 54.0 °F - 30.9 °F 41% 30.25 in 10.0 mi NW 9.2 mph - N/A   Clear
1:51 PM 55.9 °F - 28.9 °F 36% 30.24 in 10.0 mi WNW 6.9 mph - N/A   Clear
2:51 PM 57.0 °F - 28.0 °F 33% 30.23 in 10.0 mi NNW 11.5 mph 17.3 mph N/A   Clear
3:51 PM 59.0 °F - 26.1 °F 28% 30.22 in 10.0 mi NNW 10.4 mph 17.3 mph N/A   Clear
4:51 PM 57.2 °F - 24.8 °F 29% 30.19 in 10.0 mi WNW 9.2 mph - N/A   Clear
5:51 PM 59.0 °F - 21.9 °F 24% 30.21 in 10.0 mi NNW 9.2 mph - N/A   Clear
6:51 PM 57.0 °F - 23.0 °F 27% 30.21 in 10.0 mi WNW 5.8 mph - N/A   Clear
7:51 PM 53.1 °F - 23.0 °F 31% 30.23 in 10.0 mi WSW 3.5 mph - N/A   Clear
8:51 PM 46.0 °F - 27.0 °F 47% 30.24 in 10.0 mi Calm Calm - N/A   Clear
9:51 PM 42.1 °F 40.2 °F 28.0 °F 58% 30.25 in 10.0 mi South 3.5 mph - N/A   Clear
10:51 PM 37.9 °F - 28.0 °F 68% 30.25 in 10.0 mi Calm Calm - N/A   Clear
11:51 PM 37.9 °F - 28.0 °F 68% 30.26 in 10.0 mi Calm Calm - N/A   Clear